Beaufort, NC

2:01 PM EST on December 06, 2019 (GMT -0500)
Smith

Weather History for KMRH - October, 2019

Change the Weather History Date:

Thursday, October 10, 2019

  Actual Average Record
Temperature  
Mean Temperature 64 °F -  
Max Temperature 69 °F 77 °F 87 °F (1959)
Min Temperature 61 °F 57 °F 43 °F (2000)
Growing Degree Days 14 (Base 50)    
Moisture  
Dew Point 59 °F    
Average Humidity 85    
Maximum Humidity 97    
Minimum Humidity 70    
Precipitation  
Precipitation 0.00 in - - ()
Sea Level Pressure  
Sea Level Pressure 30.13 in    
Wind  
Wind Speed 10 mph (North)    
Max Wind Speed 15 mph    
Max Gust Speed -    
Visibility 10 miles    
Events      
Averages and records for this station are not official NWS values.
T = Trace of Precipitation, MM = Missing Value Source: NWS Daily Summary

Daily Weather History Graph

Daily Weather History Graph

Search for Another Location

Airport or City:

Astronomy

Oct. 10, 2019 Rise Set
Actual Time 7:08 AM EDT 6:38 PM EDT
Civil Twilight 6:42 AM EDT 7:03 PM EDT
Nautical Twilight 6:13 AM EDT 7:33 PM EDT
Astronomical Twilight 5:44 AM EDT 8:02 PM EDT
Moon 5:29 PM EDT (10/10) 4:01 AM EDT (10/10)
Length of Visible Light 12h 21m
Length of Day
11h 30m
Waxing Gibbous, 91% of the Moon is Illuminated
Oct 10
Waxing Gibbous
Oct 13
Full
Oct 21
Last Quarter
Oct 27
New
Nov 4
First Quarter

Hourly Weather History & Observations

Time (EDT) Temp. Dew Point Humidity Pressure Visibility Wind Dir Wind Speed Gust Speed Precip Events Conditions
12:12 AM 64.0 °F 62.1 °F 93% 30.13 in 10.0 mi North 11.5 mph - N/A   Overcast
12:32 AM 64.0 °F 62.1 °F 93% 30.13 in 10.0 mi North 10.4 mph - N/A   Overcast
12:58 AM 63.0 °F 62.1 °F 97% 30.12 in 10.0 mi North 10.4 mph - N/A   Overcast
1:38 AM 63.0 °F 62.1 °F 97% 30.12 in 10.0 mi North 10.4 mph - N/A   Overcast
2:58 AM 63.0 °F 61.0 °F 93% 30.11 in 10.0 mi North 10.4 mph - N/A   Overcast
3:58 AM 63.0 °F 61.0 °F 93% 30.11 in 10.0 mi North 11.5 mph - N/A   Overcast
4:39 AM 62.1 °F 60.1 °F 93% 30.11 in 10.0 mi North 10.4 mph - N/A   Overcast
4:58 AM 62.1 °F 60.1 °F 93% 30.12 in 10.0 mi North 10.4 mph - N/A   Overcast
5:58 AM 63.0 °F 59.0 °F 87% 30.12 in 10.0 mi North 12.7 mph - N/A   Overcast
6:58 AM 61.0 °F 59.0 °F 93% 30.13 in 10.0 mi North 9.2 mph - N/A   Mostly Cloudy
7:58 AM 62.1 °F 59.0 °F 90% 30.14 in 10.0 mi North 11.5 mph - N/A   Overcast
8:40 AM 63.0 °F 59.0 °F 87% 30.15 in 10.0 mi North 9.2 mph - N/A   Overcast
8:58 AM 64.0 °F 60.1 °F 87% 30.16 in 10.0 mi North 8.1 mph - N/A   Overcast
9:07 AM 64.0 °F 59.0 °F 84% 30.16 in 10.0 mi North 9.2 mph - N/A   Overcast
9:58 AM 64.9 °F 60.1 °F 84% 30.17 in 10.0 mi North 10.4 mph - N/A   Overcast
10:58 AM 66.0 °F 59.0 °F 78% 30.17 in 10.0 mi North 12.7 mph - N/A   Overcast
11:58 AM 68.0 °F 57.9 °F 70% 30.15 in 10.0 mi North 10.4 mph - N/A   Overcast
12:58 PM 66.0 °F 57.9 °F 75% 30.14 in 10.0 mi North 10.4 mph - N/A   Overcast
1:58 PM 66.9 °F 57.9 °F 73% 30.11 in 10.0 mi North 15.0 mph - N/A   Overcast
2:58 PM 66.0 °F 57.9 °F 75% 30.11 in 10.0 mi North 13.8 mph - N/A   Overcast
3:58 PM 66.9 °F 57.9 °F 73% 30.11 in 10.0 mi NNE 12.7 mph - N/A   Overcast
4:58 PM 66.0 °F 57.0 °F 73% 30.10 in 10.0 mi North 9.2 mph - N/A   Overcast
5:58 PM 66.0 °F 57.9 °F 75% 30.10 in 10.0 mi North 8.1 mph - N/A   Overcast
6:58 PM 66.0 °F 57.9 °F 75% 30.10 in 10.0 mi North 8.1 mph - N/A   Overcast
7:58 PM 64.9 °F 57.9 °F 78% 30.11 in 10.0 mi North 6.9 mph - N/A   Overcast
8:58 PM 64.9 °F 59.0 °F 81% 30.12 in 10.0 mi North 5.8 mph - N/A   Overcast
9:58 PM 63.0 °F 59.0 °F 87% 30.12 in 10.0 mi North 5.8 mph - N/A   Clear
10:58 PM 62.1 °F 59.0 °F 90% 30.12 in 10.0 mi NNW 5.8 mph - N/A   Scattered Clouds
11:58 PM 63.0 °F 60.1 °F 90% 30.11 in 10.0 mi NNW 6.9 mph - N/A   Clear